Retour au catalogue

COSMOS 2079

GLONASS

ActifNavigationMEO
NORAD 20619·PAYLOAD·🇷🇺 Russia

Lancé May 19, 1990 depuis Baikonur Cosmodrome

Loading…

Prochains Passages (prochaines 24 heures)

TLE

FraisSource: Space-Track

Époque: Sep 13, 2026, 01:55 UTC

1 20619U 90045A   26256.07986299 -.00000040  00000-0  00000-0 0  9992
2 20619  64.6523 305.3517 0048646 204.6350 216.7789  2.13103424282639

Suivez COSMOS 2079 en temps réel avec AllMySat

Download on the App Store